Mumbai, India

6:10 PM IST on May 30, 2017 (GMT +0530)
Chhatrapati Shivaji International

Weather History for VABB - March, 2012

Change the Weather History Date:

Friday, March 23, 2012

  Actual Average Record
Temperature  
Mean Temperature 82 °F -  
Max Temperature 95 °F 89 °F 100 °F (2016)
Min Temperature 68 °F 74 °F 68 °F (2014)
Cooling Degree Days 16    
Growing Degree Days 32 (Base 50)    
Moisture  
Dew Point 59 °F    
Average Humidity 45    
Maximum Humidity 66    
Minimum Humidity 10    
Precipitation  
Precipitation 0.00 in - - ()
Sea Level Pressure  
Sea Level Pressure 29.84 in    
Wind  
Wind Speed 5 mph ()    
Max Wind Speed 14 mph    
Max Gust Speed 20 mph    
Visibility 1.6 miles    
Events      
Averages and records for this station are not official NWS values.
T = Trace of Precipitation, MM = Missing Value Source: Averaged Metar Reports

Daily Weather History Graph

Daily Weather History Graph

Search for Another Location

Airport or City:

Trip Planner

Search our weather history database for the weather conditions in past years. The results will help you decide how hot, cold, wet, or windy it might be!

Date:

Astronomy

Mar. 23, 2012 Rise Set
Actual Time 6:40 AM IST 6:50 PM IST
Civil Twilight 6:18 AM IST 7:12 PM IST
Nautical Twilight 5:52 AM IST 7:37 PM IST
Astronomical Twilight 5:27 AM IST 8:03 PM IST
Moon 6:46 AM IST (3/23) 7:30 PM IST (3/23)
Length of Visible Light 12h 54m
Length of Day
12h 10m
New Moon, 0% of the Moon is Illuminated
Mar 23
New Moon
Mar 31
First Quarter
Apr 7
Full
Apr 13
Last Quarter
Apr 21
New

Hourly Weather History & Observations

Time (IST) Temp. Heat Index Dew Point Humidity Pressure Visibility Wind Dir Wind Speed Gust Speed Precip Events Conditions
12:10 AM 78.8 °F - 66.2 °F 65% 29.86 in 1.6 mi NW 6.9 mph - N/A   Unknown
12:40 AM 78.8 °F - 66.2 °F 65% 29.86 in 1.6 mi NW 6.9 mph - N/A   Unknown
1:10 AM 78.8 °F - 66.2 °F 65% 29.86 in 1.6 mi NW 5.8 mph - N/A   Unknown
1:40 AM 78.8 °F - 66.2 °F 65% 29.83 in 1.6 mi NNW 4.6 mph - N/A   Unknown
2:10 AM 77.0 °F - 64.4 °F 65% 29.83 in 1.7 mi NW 3.5 mph - N/A   Unknown
2:30 AM 76 °F - 66 °F 64% 29.83 in 1 mi NNW 3.5 mph - -   Smoke
3:10 AM 77.0 °F - 62.6 °F 61% 29.83 in 1.9 mi NNW 3.5 mph - N/A   Unknown
3:40 AM 77.0 °F - 62.6 °F 61% 29.80 in 1.9 mi NNW 4.6 mph - N/A   Smoke
4:10 AM 77.0 °F - 62.6 °F 61% 29.80 in 1.9 mi NNW 4.6 mph - N/A   Smoke
4:40 AM 77.0 °F - 62.6 °F 61% 29.80 in 1.9 mi North 5.8 mph - N/A   Smoke
5:10 AM 77.0 °F - 62.6 °F 61% 29.80 in 1.9 mi North 4.6 mph - N/A   Smoke
5:30 AM 74 °F - 64 °F 64% 29.82 in 1 mi Calm Calm - -   Smoke
5:40 AM 77.0 °F - 62.6 °F 61% 29.83 in 1.9 mi North 4.6 mph - N/A   Smoke
6:10 AM 77.0 °F - 60.8 °F 57% 29.83 in 1.9 mi Calm Calm - N/A   Smoke
6:40 AM 77.0 °F - 62.6 °F 61% 29.86 in 1.9 mi SSW 4.6 mph - N/A   Smoke
7:10 AM 75.2 °F - 62.6 °F 65% 29.86 in 1.6 mi Variable 3.5 mph - N/A   Smoke
7:40 AM 77.0 °F - 62.6 °F 61% 29.86 in 1.6 mi Calm Calm - N/A   Smoke
8:10 AM 78.8 °F - 62.6 °F 57% 29.89 in 1.6 mi Calm Calm - N/A   Smoke
8:30 AM 76 °F - 67 °F 65% 29.90 in 1 mi Calm Calm - -   Smoke
8:40 AM 78.8 °F - 62.6 °F 57% 29.89 in 1.6 mi Calm Calm - N/A   Smoke
9:10 AM 80.6 °F 81.5 °F 60.8 °F 51% 29.89 in 1.6 mi Calm Calm - N/A   Smoke
9:40 AM 82.4 °F 83.9 °F 64.4 °F 54% 29.92 in 1.6 mi Calm Calm - N/A   Smoke
10:10 AM 84.2 °F 86.6 °F 66.2 °F 55% 29.92 in 1.6 mi WNW 5.8 mph - N/A   Smoke
10:40 AM 86.0 °F 89.4 °F 68.0 °F 55% 29.92 in 1.6 mi NNW 3.5 mph - N/A   Smoke
11:10 AM 86.0 °F 91.8 °F 71.6 °F 62% 29.92 in 1.6 mi West 8.1 mph - N/A   Smoke
11:30 AM 88 °F - 69 °F 44% 29.91 in 1 mi NW 4.6 mph - -   Smoke
11:40 AM 86.0 °F 91.8 °F 71.6 °F 62% 29.89 in 1.6 mi WNW 3.5 mph - N/A   Smoke
12:10 PM 87.8 °F 95.6 °F 73.4 °F 62% 29.89 in 1.6 mi West 9.2 mph - N/A   Smoke
12:40 PM 86.0 °F 93.4 °F 73.4 °F 66% 29.86 in 1.6 mi West 11.5 mph - N/A   Smoke
1:10 PM 87.8 °F 95.6 °F 73.4 °F 62% 29.86 in 1.6 mi WNW 11.5 mph - N/A   Smoke
1:40 PM 89.6 °F 96.2 °F 71.6 °F 55% 29.83 in 1.6 mi West 12.7 mph - N/A   Smoke
2:10 PM 91.4 °F 94.0 °F 66.2 °F 43% 29.83 in 1.6 mi West 10.4 mph - N/A   Smoke
2:30 PM 92 °F - 65 °F 31% 29.83 in 1 mi West 5.8 mph - -   Smoke
2:40 PM 91.4 °F 95.4 °F 68.0 °F 46% 29.80 in 1.4 mi WNW 8.1 mph 19.6 mph N/A   Smoke
3:10 PM 93.2 °F 96.2 °F 66.2 °F 41% 29.80 in 1.3 mi WNW 10.4 mph - N/A   Smoke
3:40 PM 95.0 °F 95.2 °F 60.8 °F 32% 29.80 in 1.3 mi NW 10.4 mph - N/A   Smoke
4:10 PM 95.0 °F 93.0 °F 55.4 °F 26% 29.80 in 1.3 mi NW 9.2 mph - N/A   Smoke
4:40 PM 95.0 °F - 51.8 °F 23% 29.77 in 1.3 mi NNW 10.4 mph - N/A   Smoke
5:10 PM 93.2 °F 90.8 °F 53.6 °F 26% 29.77 in 1.6 mi NW 13.8 mph - N/A   Smoke
5:30 PM 93 °F - 47 °F 12% 29.78 in 1 mi NNW 9.2 mph - -   Smoke
5:40 PM 93.2 °F - 48.2 °F 21% 29.77 in 1.7 mi NW 9.2 mph - N/A   Smoke
6:10 PM 93.2 °F - 44.6 °F 19% 29.77 in 1.7 mi NW 9.2 mph - N/A   Smoke
6:40 PM 91.4 °F - 44.6 °F 20% 29.77 in 1.7 mi NW 4.6 mph - N/A   Smoke
7:10 PM 91.4 °F - 41.0 °F 17% 29.80 in 1.7 mi NW 6.9 mph - N/A   Smoke
8:10 PM 91.4 °F - 41.0 °F 17% 29.83 in 1.9 mi NNW 6.9 mph - N/A   Smoke
8:30 PM 88 °F - 43 °F 12% 29.83 in 1 mi North 4.6 mph - -   Smoke
8:40 PM 89.6 °F - 39.2 °F 17% 29.83 in 1.9 mi Variable 3.5 mph - N/A   Smoke
9:10 PM 91.4 °F - 37.4 °F 15% 29.86 in 1.9 mi Calm Calm - N/A   Smoke
9:40 PM 91.4 °F - 30.2 °F 11% 29.86 in - Calm Calm - N/A   Smoke
10:10 PM 91.4 °F - 28.4 °F 10% 29.86 in 2.2 mi Calm Calm - N/A   Smoke
11:10 PM 87.8 °F - 41.0 °F 19% 29.86 in 1.6 mi Calm Calm - N/A   Smoke
11:30 PM 73 °F - 55 °F 43% 29.87 in 1 mi Calm Calm - -   Smoke
11:40 PM 84.2 °F - 42.8 °F 23% 29.86 in 1.1 mi Calm Calm - N/A   Smoke